M I D A S
Marine Information and Data Acquisition System
Tripno 946 of the Zeeleeuw from 2005-07-14 07:46:47 to 2005-07-14 12:55:17
Back to CruiseResearch ActivitiesStationsMapUnderway DataData graphs

EquipmentUnitsComments
TimeDGPSUTC
LatitudeDGPSDM.mWGS84
LongitudeDGPSDM.mWGS84
SpeedMeteo Stationm/sRelative wind speed
DirectionMeteo StationdegRelative wind direction
TemperatureMeteo Stationdeg CelciusAir temperature
PressureMeteo StationPaAtmospheric pressure
HumidityMeteo Station%Relative humidity
Missing or incorrect values are displayed as -999
Metereological data collected by the RV Zeeleeuw from 2005-07-14 07:48:16 to 2005-07-14 13:05:42
                                                                                    Next 1000 lines
Time Latitude Longitude Speed Direction Temperature Pressure Humidity
2005-07-14 07:48:28 51°13.598 2°56.105 2.4 107 15.6 102140 100
2005-07-14 07:48:32 51°13.599 2°56.103 2.5 105 15.5 102140 100
2005-07-14 07:48:37 51°13.599 2°56.1 2.1 112 15.5 102140 100
2005-07-14 07:48:42 51°13.6 2°56.096 2.1 121 15.5 102140 100
2005-07-14 07:48:47 51°13.601 2°56.092 2.4 123 15.5 102140 100
2005-07-14 07:48:53 51°13.603 2°56.087 3 133 15.5 102140 100
2005-07-14 07:48:58 51°13.605 2°56.082 2.5 134 15.5 102140 100
2005-07-14 07:49:02 51°13.606 2°56.078 3.1 121 15.5 102140 100
2005-07-14 07:49:08 51°13.608 2°56.071 2.7 141 15.5 102140 100
2005-07-14 07:49:12 51°13.609 2°56.066 2.8 127 15.5 102140 100
2005-07-14 07:49:18 51°13.611 2°56.06 2.2 126 15.5 102140 100
2005-07-14 07:49:23 51°13.613 2°56.053 2.6 120 15.5 102140 100
2005-07-14 07:49:28 51°13.615 2°56.048 2.7 129 15.5 102140 100
2005-07-14 07:49:33 51°13.617 2°56.04 2.6 125 15.5 102140 100
2005-07-14 07:49:38 51°13.619 2°56.034 2.6 125 15.5 102140 100
2005-07-14 07:49:42 51°13.62 2°56.027 2.5 126 15.5 102140 100
2005-07-14 07:49:47 51°13.622 2°56.021 2.9 -999 15.5 102140 100
2005-07-14 07:49:52 51°13.624 2°56.013 2.5 120 15.5 102150 100
2005-07-14 07:49:58 51°13.626 2°56.005 2.2 121 15.5 102150 100
2005-07-14 07:50:02 51°13.628 2°55.998 2 120 15.5 102140 100
2005-07-14 07:50:08 51°13.631 2°55.99 1.9 120 15.5 102140 100
2005-07-14 07:50:12 51°13.633 2°55.982 2.7 136 15.5 102140 100
2005-07-14 07:50:18 51°13.636 2°55.974 2.7 139 15.5 102140 100
2005-07-14 07:50:22 51°13.639 2°55.966 1.9 128 15.5 102140 100
2005-07-14 07:50:28 51°13.642 2°55.958 2.3 136 15.5 102140 100
2005-07-14 07:50:32 51°13.645 2°55.95 2.4 137 15.5 102150 100
2005-07-14 07:50:38 51°13.648 2°55.941 2.5 142 15.5 102150 100
2005-07-14 07:50:43 51°13.651 2°55.932 2.2 143 15.5 102140 100
2005-07-14 07:50:47 51°13.653 2°55.926 2.8 -999 15.5 102140 100
2005-07-14 07:50:52 51°13.657 2°55.917 2.6 134 15.5 102150 100
2005-07-14 07:50:58 51°13.66 2°55.909 2.6 139 15.5 102150 100
2005-07-14 07:51:02 51°13.663 2°55.901 2 139 15.5 102140 100
2005-07-14 07:51:08 51°13.666 2°55.892 2.1 134 15.5 102140 100
2005-07-14 07:51:12 51°13.669 2°55.884 2 130 15.5 102150 100
2005-07-14 07:51:18 51°13.672 2°55.877 2 131 15.5 102150 100
2005-07-14 07:51:23 51°13.675 2°55.868 1.7 132 15.5 102150 100
2005-07-14 07:51:28 51°13.677 2°55.86 2.3 139 15.5 102150 100
2005-07-14 07:51:32 51°13.68 2°55.854 2 139 15.5 102150 100
2005-07-14 07:51:38 51°13.682 2°55.845 2.3 139 15.5 102150 100
2005-07-14 07:51:43 51°13.684 2°55.838 1.9 137 15.5 102140 100
2005-07-14 07:51:48 51°13.686 2°55.83 2.2 -999 15.5 102140 100
2005-07-14 07:51:52 51°13.688 2°55.823 2.6 139 15.5 102150 100
2005-07-14 07:51:56 51°13.689 2°55.817 2.7 139 15.5 102150 100
2005-07-14 07:52:03 51°13.692 2°55.806 2.4 143 15.5 102150 100
2005-07-14 07:52:08 51°13.693 2°55.799 2.8 139 15.5 102150 100
2005-07-14 07:52:13 51°13.695 2°55.791 2.8 136 15.5 102150 100
2005-07-14 07:52:18 51°13.696 2°55.784 2.3 135 15.5 102150 100
2005-07-14 07:52:23 51°13.697 2°55.777 2.3 135 15.6 102150 100
2005-07-14 07:52:28 51°13.698 2°55.77 2.5 132 15.6 102150 100
2005-07-14 07:52:32 51°13.698 2°55.765 2.4 122 15.6 102150 100
2005-07-14 07:52:38 51°13.699 2°55.76 2.3 110 15.6 102150 100
2005-07-14 07:52:42 51°13.7 2°55.757 1.9 109 15.6 102150 100
2005-07-14 07:52:48 51°13.7 2°55.754 1.4 108 15.6 102150 100
2005-07-14 07:52:52 51°13.701 2°55.754 1.6 99 15.6 102150 100
2005-07-14 07:52:56 51°13.701 2°55.753 1.6 102 15.6 102150 100
2005-07-14 07:53:02 51°13.702 2°55.754 2.2 97 15.6 102150 100
2005-07-14 07:53:07 51°13.703 2°55.755 1.8 100 15.6 102150 100
2005-07-14 07:53:12 51°13.703 2°55.756 1.8 114 15.6 102150 100
2005-07-14 07:53:16 51°13.704 2°55.756 1.9 120 15.6 102150 100
2005-07-14 07:53:22 51°13.704 2°55.755 1.9 124 15.6 102150 100
2005-07-14 07:53:27 51°13.704 2°55.754 1.8 127 15.6 102150 100
2005-07-14 07:53:32 51°13.704 2°55.753 2 134 15.6 102150 100
2005-07-14 07:53:36 51°13.703 2°55.752 2.4 141 15.6 102150 100
2005-07-14 07:53:42 51°13.702 2°55.749 2.1 150 15.6 102150 100
2005-07-14 07:53:47 51°13.701 2°55.747 2.1 -999 15.6 102150 100
2005-07-14 07:53:52 51°13.701 2°55.745 2.3 154 15.6 102150 100
2005-07-14 07:53:57 51°13.7 2°55.743 2 151 15.6 102150 100
2005-07-14 07:54:02 51°13.7 2°55.743 1.4 144 15.6 102150 100
2005-07-14 07:54:07 51°13.701 2°55.743 1.2 145 15.6 102150 100
2005-07-14 07:54:12 51°13.703 2°55.744 1 145 15.6 102150 100
2005-07-14 07:54:18 51°13.705 2°55.745 0.8 136 15.6 102150 100
2005-07-14 07:54:22 51°13.708 2°55.745 0.6 135 15.6 102150 100
2005-07-14 07:54:27 51°13.711 2°55.746 0.5 135 15.6 102150 100
2005-07-14 07:54:31 51°13.715 2°55.746 0.1 135 15.6 102150 100
2005-07-14 07:54:36 51°13.719 2°55.744 0.1 135 15.6 102150 100
2005-07-14 07:54:42 51°13.724 2°55.742 -999 135 15.6 102150 100
2005-07-14 07:54:47 51°13.729 2°55.739 -999 -999 15.6 102150 100
2005-07-14 07:54:52 51°13.735 2°55.734 -999 9 15.6 102150 100
2005-07-14 07:54:57 51°13.739 2°55.731 -999 4 15.6 102150 100
2005-07-14 07:55:02 51°13.745 2°55.725 0.1 360 15.6 102150 100
2005-07-14 07:55:07 51°13.75 2°55.72 0.1 354 15.6 102150 100
2005-07-14 07:55:12 51°13.755 2°55.714 0.1 348 15.6 102150 100
2005-07-14 07:55:16 51°13.761 2°55.707 -999 347 15.6 102150 100
2005-07-14 07:55:22 51°13.77 2°55.698 -999 338 15.6 102150 100
2005-07-14 07:55:27 51°13.776 2°55.69 -999 336 15.6 102150 100
2005-07-14 07:55:32 51°13.784 2°55.681 -999 336 15.6 102150 100
2005-07-14 07:55:37 51°13.791 2°55.673 -999 336 15.6 102150 100
2005-07-14 07:55:42 51°13.799 2°55.664 -999 336 15.6 102150 100
2005-07-14 07:55:47 51°13.808 2°55.655 -999 -999 15.6 102150 100
2005-07-14 07:55:52 51°13.817 2°55.646 1.6 349 15.6 102150 100
2005-07-14 07:55:56 51°13.824 2°55.639 1.4 346 15.6 102150 100
2005-07-14 07:56:02 51°13.836 2°55.629 1.4 344 15.6 102150 100
2005-07-14 07:56:07 51°13.844 2°55.621 1.1 344 15.6 102150 100
2005-07-14 07:56:12 51°13.855 2°55.612 1.5 344 15.6 102150 100
2005-07-14 07:56:17 51°13.864 2°55.604 1.5 344 15.6 102150 100
2005-07-14 07:56:22 51°13.875 2°55.595 1.8 349 15.6 102150 100
2005-07-14 07:56:28 51°13.885 2°55.587 1.7 350 15.6 102150 100
2005-07-14 07:56:32 51°13.894 2°55.58 1.8 352 15.6 102150 100
2005-07-14 07:56:38 51°13.906 2°55.57 1.9 353 15.6 102150 100
2005-07-14 07:56:42 51°13.916 2°55.562 1.7 352 15.6 102150 100
2005-07-14 07:56:47 51°13.926 2°55.556 1.6 -999 15.6 102150 100
2005-07-14 07:56:52 51°13.936 2°55.549 1.5 353 15.6 102150 100
2005-07-14 07:56:57 51°13.948 2°55.541 1.4 355 15.6 102150 100
2005-07-14 07:57:02 51°13.959 2°55.534 1.2 355 15.7 102150 100
2005-07-14 07:57:07 51°13.969 2°55.526 1.2 355 15.7 102150 100
2005-07-14 07:57:12 51°13.979 2°55.52 1.2 360 15.6 102150 100
2005-07-14 07:57:16 51°13.991 2°55.513 1.1 360 15.6 102150 100
2005-07-14 07:57:22 51°14.004 2°55.505 0.9 360 15.6 102150 100
2005-07-14 07:57:27 51°14.014 2°55.498 0.9 360 15.6 102150 100
2005-07-14 07:57:32 51°14.024 2°55.492 1.2 359 15.6 102150 100
2005-07-14 07:57:36 51°14.035 2°55.485 1.5 6 15.6 102150 100
2005-07-14 07:57:42 51°14.048 2°55.476 1.5 11 15.7 102150 100
2005-07-14 07:57:48 51°14.059 2°55.469 1.5 11 15.7 102150 100
2005-07-14 07:57:51 51°14.067 2°55.464 0.9 11 15.7 102150 100
2005-07-14 07:57:58 51°14.082 2°55.454 1.5 11 15.7 102150 100
2005-07-14 07:58:00 51°14.088 2°55.449 1.6 11 15.7 102140 100
2005-07-14 07:58:07 51°14.103 2°55.44 1.6 10 15.7 102140 100
2005-07-14 07:58:12 51°14.115 2°55.432 1.7 10 15.7 102140 100
2005-07-14 07:58:16 51°14.124 2°55.425 1.9 11 15.7 102140 100
2005-07-14 07:58:22 51°14.137 2°55.415 1.8 359 15.7 102140 100
2005-07-14 07:58:27 51°14.146 2°55.407 2 351 15.7 102140 100
2005-07-14 07:58:32 51°14.158 2°55.397 2.3 343 15.7 102140 100
2005-07-14 07:58:38 51°14.168 2°55.387 2.1 351 15.7 102140 100
2005-07-14 07:58:42 51°14.177 2°55.378 2.2 357 15.7 102140 100
2005-07-14 07:58:47 51°14.187 2°55.367 2.7 333 15.7 102140 100
2005-07-14 07:58:52 51°14.198 2°55.355 2.8 348 15.7 102140 100
2005-07-14 07:58:56 51°14.206 2°55.346 2.5 334 15.7 102140 100
2005-07-14 07:59:02 51°14.217 2°55.332 2.9 341 15.7 102140 100
2005-07-14 07:59:08 51°14.227 2°55.319 3.6 342 15.7 102140 100
2005-07-14 07:59:11 51°14.233 2°55.311 3.1 340 15.7 102140 100
2005-07-14 07:59:16 51°14.244 2°55.296 3.4 342 15.7 102140 100
2005-07-14 07:59:22 51°14.254 2°55.28 3.4 337 15.8 102140 100
2005-07-14 07:59:27 51°14.262 2°55.267 3.2 326 15.8 102140 100
2005-07-14 07:59:32 51°14.271 2°55.253 3.5 329 15.8 102140 100
2005-07-14 07:59:37 51°14.28 2°55.237 3.6 335 15.8 102140 100
2005-07-14 07:59:42 51°14.289 2°55.219 3.1 341 15.8 102140 100
2005-07-14 07:59:47 51°14.297 2°55.203 4.1 340 15.8 102140 100
2005-07-14 07:59:52 51°14.306 2°55.186 4 345 15.8 102140 100
2005-07-14 07:59:56 51°14.313 2°55.169 4.2 341 15.8 102140 100
2005-07-14 08:00:02 51°14.322 2°55.148 4.5 345 15.8 102140 100
2005-07-14 08:00:07 51°14.331 2°55.129 3.8 341 15.8 102140 100
2005-07-14 08:00:11 51°14.337 2°55.113 3.8 343 15.8 102140 100
2005-07-14 08:00:16 51°14.346 2°55.092 3.8 339 15.8 102140 100
2005-07-14 08:00:22 51°14.355 2°55.069 3.6 339 15.8 102140 100
2005-07-14 08:00:27 51°14.363 2°55.048 4.1 349 15.8 102140 100
2005-07-14 08:00:32 51°14.371 2°55.025 3.6 352 15.8 102140 100
2005-07-14 08:00:36 51°14.377 2°55.008 4.3 352 15.8 102140 100
2005-07-14 08:00:42 51°14.385 2°54.981 4.3 343 15.8 102140 100
2005-07-14 08:00:47 51°14.392 2°54.961 4.8 359 15.8 102140 100
2005-07-14 08:00:51 51°14.397 2°54.942 5.5 343 15.8 102140 100
2005-07-14 08:00:56 51°14.403 2°54.916 5.3 346 15.8 102140 100
2005-07-14 08:01:02 51°14.408 2°54.888 5 352 15.8 102140 100
2005-07-14 08:01:08 51°14.413 2°54.861 4.8 351 15.8 102140 100
2005-07-14 08:01:12 51°14.417 2°54.835 4.8 352 15.8 102140 100
2005-07-14 08:01:18 51°14.42 2°54.81 4.9 349 15.8 102140 100
2005-07-14 08:01:22 51°14.424 2°54.784 5.2 353 15.8 102140 100
2005-07-14 08:01:28 51°14.427 2°54.757 5.5 346 15.8 102140 100
2005-07-14 08:01:31 51°14.428 2°54.739 5.3 350 15.8 102140 100
2005-07-14 08:01:38 51°14.429 2°54.704 5.3 344 15.8 102140 100
2005-07-14 08:01:42 51°14.429 2°54.678 5.3 345 15.8 102140 100
2005-07-14 08:01:47 51°14.428 2°54.654 6.5 346 15.8 102140 100
2005-07-14 08:01:51 51°14.428 2°54.633 6.5 348 15.8 102140 100
2005-07-14 08:01:58 51°14.427 2°54.598 6.4 348 15.8 102140 100
2005-07-14 08:02:02 51°14.425 2°54.574 6.6 347 15.8 102140 100
2005-07-14 08:02:07 51°14.424 2°54.547 6.7 350 15.8 102140 100
2005-07-14 08:02:12 51°14.423 2°54.522 6.8 347 15.8 102140 100
2005-07-14 08:02:16 51°14.421 2°54.496 6.4 347 15.8 102140 100
2005-07-14 08:02:22 51°14.419 2°54.466 6.4 346 15.9 102140 100
2005-07-14 08:02:28 51°14.416 2°54.437 6.1 350 15.9 102140 100
2005-07-14 08:02:32 51°14.413 2°54.41 7 356 15.9 102140 100
2005-07-14 08:02:36 51°14.41 2°54.389 6.5 359 15.9 102140 100
2005-07-14 08:02:42 51°14.406 2°54.36 6.7 3 15.9 102140 100
2005-07-14 08:02:47 51°14.402 2°54.333 6.6 353 15.9 102140 100
2005-07-14 08:02:52 51°14.397 2°54.31 6.6 357 15.9 102140 100
2005-07-14 08:02:57 51°14.391 2°54.282 7.1 359 15.9 102140 100
2005-07-14 08:03:02 51°14.386 2°54.256 6.8 357 15.9 102140 100
2005-07-14 08:03:08 51°14.379 2°54.228 6.8 348 15.9 102140 100
2005-07-14 08:03:12 51°14.374 2°54.206 7.1 354 15.9 102140 100
2005-07-14 08:03:17 51°14.368 2°54.181 7.2 349 15.9 102140 100
2005-07-14 08:03:22 51°14.361 2°54.154 6.5 356 15.9 102140 100
2005-07-14 08:03:28 51°14.355 2°54.129 7.2 359 15.9 102140 100
2005-07-14 08:03:32 51°14.348 2°54.105 7.1 354 15.9 102140 100
2005-07-14 08:03:37 51°14.342 2°54.084 7.2 353 15.9 102140 100
2005-07-14 08:03:42 51°14.334 2°54.058 7.1 357 16 102140 100
2005-07-14 08:03:47 51°14.327 2°54.037 8.2 356 16 102140 100
2005-07-14 08:03:51 51°14.321 2°54.018 7.9 356 16 102140 100
2005-07-14 08:03:56 51°14.313 2°53.992 7.5 357 16 102140 100
2005-07-14 08:04:02 51°14.304 2°53.967 7.7 357 16 102140 100
2005-07-14 08:04:07 51°14.297 2°53.943 7.5 356 16 102140 100
2005-07-14 08:04:12 51°14.288 2°53.918 7.5 354 16 102140 100
2005-07-14 08:04:16 51°14.282 2°53.899 7.6 343 16 102140 100
2005-07-14 08:04:22 51°14.273 2°53.871 7.6 346 16 102140 100
2005-07-14 08:04:28 51°14.265 2°53.847 7.4 347 16 102140 100
2005-07-14 08:04:32 51°14.258 2°53.824 7.5 356 16 102140 100
2005-07-14 08:04:37 51°14.251 2°53.803 7.7 348 16 102140 100
2005-07-14 08:04:42 51°14.243 2°53.78 7 353 15.9 102140 100
2005-07-14 08:04:48 51°14.235 2°53.754 6.9 349 15.9 102140 100
2005-07-14 08:04:52 51°14.228 2°53.733 7.1 351 16 102140 100
2005-07-14 08:04:57 51°14.22 2°53.709 6.7 351 16 102140 100
2005-07-14 08:05:02 51°14.213 2°53.688 7.2 352 16 102140 100
2005-07-14 08:05:07 51°14.205 2°53.662 7.4 351 16 102140 100
2005-07-14 08:05:12 51°14.197 2°53.637 6.9 351 16 102140 100
2005-07-14 08:05:16 51°14.19 2°53.618 6.9 353 16 102140 100
2005-07-14 08:05:22 51°14.181 2°53.591 7.1 352 16 102140 100
2005-07-14 08:05:28 51°14.172 2°53.567 6.7 358 16 102140 100
2005-07-14 08:05:32 51°14.165 2°53.547 6.6 359 16 102130 100
2005-07-14 08:05:37 51°14.156 2°53.523 6.9 1 16 102130 100
2005-07-14 08:05:42 51°14.147 2°53.498 7.5 357 16 102140 100
2005-07-14 08:05:48 51°14.138 2°53.473 6.9 355 16 102140 100
2005-07-14 08:05:52 51°14.13 2°53.451 6.8 2 16 102140 100
2005-07-14 08:05:57 51°14.121 2°53.427 6.9 358 16 102140 100
2005-07-14 08:06:02 51°14.111 2°53.4 7 -999 16 102140 100
2005-07-14 08:06:07 51°14.103 2°53.377 7 360 16 102140 100
2005-07-14 08:06:12 51°14.095 2°53.354 7.2 1 16 102140 100
2005-07-14 08:06:16 51°14.086 2°53.329 7.1 357 16 102140 100
2005-07-14 08:06:22 51°14.076 2°53.302 6.9 360 16 102140 100
2005-07-14 08:06:27 51°14.067 2°53.276 6.6 2 16 102140 100
2005-07-14 08:06:32 51°14.057 2°53.249 6.7 359 15.9 102140 100
2005-07-14 08:06:37 51°14.049 2°53.226 6.5 358 15.9 102140 100
2005-07-14 08:06:42 51°14.039 2°53.198 6.7 356 15.9 102140 100
2005-07-14 08:06:48 51°14.03 2°53.171 6.1 358 15.9 102140 100
2005-07-14 08:06:51 51°14.024 2°53.154 6.6 2 15.9 102140 100
2005-07-14 08:06:56 51°14.014 2°53.126 6.5 357 15.9 102140 100
2005-07-14 08:07:02 51°14.003 2°53.095 7.2 359 15.9 102140 100
2005-07-14 08:07:07 51°13.995 2°53.072 7.2 352 15.9 102140 100
2005-07-14 08:07:12 51°13.984 2°53.045 7.1 357 15.9 102140 100
2005-07-14 08:07:16 51°13.977 2°53.025 7.2 355 15.9 102140 100
2005-07-14 08:07:22 51°13.966 2°52.997 7.5 353 15.9 102140 100
2005-07-14 08:07:28 51°13.955 2°52.969 8.1 355 15.9 102140 100
2005-07-14 08:07:32 51°13.946 2°52.944 7.6 356 15.9 102140 100
2005-07-14 08:07:38 51°13.936 2°52.919 7.8 356 15.9 102140 100
2005-07-14 08:07:42 51°13.927 2°52.896 7.3 351 15.9 102140 100
2005-07-14 08:07:47 51°13.918 2°52.871 7.6 349 15.9 102140 100
2005-07-14 08:07:52 51°13.907 2°52.844 7.5 346 15.9 102140 100
2005-07-14 08:07:58 51°13.897 2°52.819 7.1 348 15.9 102140 100
2005-07-14 08:08:01 51°13.89 2°52.802 6.7 347 15.9 102140 100
2005-07-14 08:08:08 51°13.878 2°52.769 6.4 349 15.9 102140 100
2005-07-14 08:08:12 51°13.869 2°52.746 6.8 348 15.9 102140 100
2005-07-14 08:08:17 51°13.86 2°52.721 7.5 344 15.9 102140 100
2005-07-14 08:08:22 51°13.849 2°52.693 6.9 346 15.9 102130 100
2005-07-14 08:08:27 51°13.841 2°52.671 6.8 346 15.9 102130 100
2005-07-14 08:08:32 51°13.83 2°52.643 6.7 346 16 102130 100
2005-07-14 08:08:37 51°13.822 2°52.62 7 347 16 102130 100
2005-07-14 08:08:42 51°13.811 2°52.592 7.3 345 16 102140 100
2005-07-14 08:08:47 51°13.803 2°52.569 7.6 344 16 102140 100
2005-07-14 08:08:52 51°13.793 2°52.544 7.7 349 16 102140 100
2005-07-14 08:08:56 51°13.785 2°52.521 7.4 343 16 102140 100
2005-07-14 08:09:02 51°13.774 2°52.493 7 345 16 102140 100
2005-07-14 08:09:07 51°13.765 2°52.468 7.3 343 16 102140 100
2005-07-14 08:09:12 51°13.754 2°52.44 7.3 348 16 102130 100
2005-07-14 08:09:17 51°13.746 2°52.417 7.4 342 16 102130 100
2005-07-14 08:09:22 51°13.736 2°52.392 7.1 352 16 102130 100
2005-07-14 08:09:27 51°13.726 2°52.367 7.7 360 16 102130 100
2005-07-14 08:09:32 51°13.716 2°52.339 7.3 2 16 102130 100
2005-07-14 08:09:37 51°13.707 2°52.316 7.7 353 16 102130 100
2005-07-14 08:09:42 51°13.696 2°52.288 8.7 350 16 102140 100
2005-07-14 08:09:48 51°13.687 2°52.262 8.4 349 16 102140 100
2005-07-14 08:09:52 51°13.677 2°52.237 8.3 349 16 102130 100
2005-07-14 08:09:57 51°13.669 2°52.215 8.2 347 16 102130 100
2005-07-14 08:10:02 51°13.659 2°52.189 7.9 350 16 102130 100
2005-07-14 08:10:07 51°13.65 2°52.164 7.6 349 16 102130 100
2005-07-14 08:10:12 51°13.64 2°52.138 8.5 353 16.1 102130 100
2005-07-14 08:10:17 51°13.631 2°52.113 7.7 347 16.1 102130 100
2005-07-14 08:10:22 51°13.621 2°52.088 7.8 352 16.1 102130 100
2005-07-14 08:10:27 51°13.612 2°52.062 8 353 16.1 102130 100
2005-07-14 08:10:32 51°13.604 2°52.039 8.4 354 16.1 102130 100
2005-07-14 08:10:36 51°13.594 2°52.014 8.6 354 16.1 102130 100
2005-07-14 08:10:42 51°13.583 2°51.984 8 354 16.1 102130 100
2005-07-14 08:10:48 51°13.573 2°51.958 8.5 354 16.1 102130 100
2005-07-14 08:10:52 51°13.564 2°51.933 8.3 354 16.2 102130 100
2005-07-14 08:10:56 51°13.556 2°51.913 7.8 354 16.2 102130 100
2005-07-14 08:11:02 51°13.544 2°51.882 8.2 357 16.1 102140 100
2005-07-14 08:11:07 51°13.536 2°51.86 8.5 345 16.1 102140 100
2005-07-14 08:11:12 51°13.527 2°51.837 8.9 347 16.1 102130 100
2005-07-14 08:11:16 51°13.519 2°51.814 8.3 345 16.1 102130 100
2005-07-14 08:11:22 51°13.506 2°51.781 8.7 346 16.1 102130 100
2005-07-14 08:11:27 51°13.497 2°51.758 7.4 346 16.1 102130 100
2005-07-14 08:11:32 51°13.487 2°51.73 7.9 351 16.1 102130 100
2005-07-14 08:11:36 51°13.479 2°51.71 8.3 354 16.1 102130 100
2005-07-14 08:11:42 51°13.469 2°51.682 8 348 16.1 102130 100
2005-07-14 08:11:48 51°13.458 2°51.653 7.9 353 16.1 102130 100
2005-07-14 08:11:51 51°13.452 2°51.636 8.1 355 16.1 102130 100
2005-07-14 08:11:56 51°13.441 2°51.608 7.9 356 16.1 102130 100
2005-07-14 08:12:02 51°13.432 2°51.582 8.5 356 16.1 102130 100
2005-07-14 08:12:08 51°13.421 2°51.551 7.6 359 16.1 102130 100
2005-07-14 08:12:12 51°13.411 2°51.527 7.5 357 16.1 102130 100
2005-07-14 08:12:16 51°13.403 2°51.506 7.7 358 16.1 102130 100
2005-07-14 08:12:22 51°13.393 2°51.478 8.4 354 16.1 102130 100
2005-07-14 08:12:27 51°13.383 2°51.453 8.3 354 16.1 102130 100
2005-07-14 08:12:32 51°13.373 2°51.425 8.5 353 16 102130 100
2005-07-14 08:12:37 51°13.365 2°51.402 8.2 353 16 102130 100
2005-07-14 08:12:42 51°13.355 2°51.377 9 356 16 102130 100
2005-07-14 08:12:47 51°13.345 2°51.351 8.6 354 16 102130 100
2005-07-14 08:12:52 51°13.336 2°51.326 8.4 353 16 102130 100
2005-07-14 08:12:58 51°13.325 2°51.298 8.4 353 16 102130 100
2005-07-14 08:13:02 51°13.316 2°51.273 8.6 354 16 102130 100
2005-07-14 08:13:08 51°13.306 2°51.247 8.2 354 16 102130 100
2005-07-14 08:13:12 51°13.297 2°51.222 8.4 354 16 102130 100
2005-07-14 08:13:17 51°13.289 2°51.199 8.6 354 16 102130 100
2005-07-14 08:13:22 51°13.278 2°51.171 8.6 352 16 102130 100
2005-07-14 08:13:28 51°13.269 2°51.144 8 353 16 102130 100
2005-07-14 08:13:32 51°13.26 2°51.119 8.4 352 16 102130 100
2005-07-14 08:13:37 51°13.252 2°51.096 7.9 354 16 102130 100
2005-07-14 08:13:42 51°13.241 2°51.069 7.6 349 16 102130 100
2005-07-14 08:13:48 51°13.232 2°51.043 7.4 349 16 102130 100
2005-07-14 08:13:52 51°13.222 2°51.018 7.5 354 16 102130 100
2005-07-14 08:13:56 51°13.215 2°50.997 8.2 349 16 102130 100
2005-07-14 08:14:02 51°13.203 2°50.967 8.4 349 16 102130 100
2005-07-14 08:14:08 51°13.194 2°50.941 7.4 353 16 102130 100
2005-07-14 08:14:12 51°13.185 2°50.918 7.9 352 16 102130 100
2005-07-14 08:14:16 51°13.177 2°50.895 8.1 354 16 102130 100
2005-07-14 08:14:22 51°13.166 2°50.867 7.8 353 16 102130 100
2005-07-14 08:14:27 51°13.157 2°50.842 7.6 351 16 102130 100
2005-07-14 08:14:32 51°13.147 2°50.814 7.3 350 16 102130 100
2005-07-14 08:14:37 51°13.138 2°50.791 7.3 351 16 102130 100
2005-07-14 08:14:42 51°13.128 2°50.766 6.9 356 16 102130 100
2005-07-14 08:14:48 51°13.118 2°50.738 7.1 350 16 102130 100
2005-07-14 08:14:52 51°13.109 2°50.712 6.6 354 16 102130 100
2005-07-14 08:14:56 51°13.101 2°50.692 6.2 354 16 102130 100
2005-07-14 08:15:02 51°13.09 2°50.661 6.2 356 16 102130 100
2005-07-14 08:15:08 51°13.08 2°50.635 6.7 353 16 102130 100
2005-07-14 08:15:12 51°13.073 2°50.615 7 359 16 102140 100
2005-07-14 08:15:17 51°13.062 2°50.587 6.9 355 16 102140 100
2005-07-14 08:15:22 51°13.052 2°50.559 6.9 355 16 102140 100
2005-07-14 08:15:27 51°13.043 2°50.535 7.3 356 16 102140 100
2005-07-14 08:15:32 51°13.032 2°50.507 7.8 353 16 102140 100
2005-07-14 08:15:38 51°13.023 2°50.481 7.7 357 16 102140 100
2005-07-14 08:15:42 51°13.014 2°50.456 8.6 352 16 102130 100
2005-07-14 08:15:48 51°13.004 2°50.43 7.8 353 16 102130 100
2005-07-14 08:15:52 51°12.995 2°50.404 8.1 354 16 102140 100
2005-07-14 08:15:57 51°12.986 2°50.381 9.4 353 16 102140 100
2005-07-14 08:16:02 51°12.977 2°50.356 8.8 352 16 102130 100
2005-07-14 08:16:07 51°12.967 2°50.33 8.4 349 16 102130 100
2005-07-14 08:16:12 51°12.957 2°50.302 8.4 350 16 102130 100
2005-07-14 08:16:16 51°12.949 2°50.282 8.3 347 16 102130 100
2005-07-14 08:16:22 51°12.938 2°50.25 7.9 346 16 102130 100
2005-07-14 08:16:27 51°12.93 2°50.227 7 347 16 102130 100
2005-07-14 08:16:32 51°12.919 2°50.199 6.5 347 16 102130 100
2005-07-14 08:16:34 51°12.915 2°50.189 7.2 350 16 102130 100
2005-07-14 08:16:42 51°12.901 2°50.15 7.3 348 16 102130 100
2005-07-14 08:16:48 51°12.891 2°50.122 7.5 348 16 102130 100
2005-07-14 08:16:52 51°12.882 2°50.099 8.3 352 16 102140 100
2005-07-14 08:16:56 51°12.874 2°50.076 8.7 353 16 102140 100
2005-07-14 08:17:02 51°12.863 2°50.045 8.9 352 16 102140 100
2005-07-14 08:17:08 51°12.853 2°50.019 8.3 356 16 102140 100
2005-07-14 08:17:12 51°12.843 2°49.994 8.4 4 16 102140 100
2005-07-14 08:17:16 51°12.836 2°49.974 8 2 16 102140 100
2005-07-14 08:17:22 51°12.825 2°49.946 7.9 3 16 102130 100
2005-07-14 08:17:27 51°12.815 2°49.92 8.7 359 16 102130 100
2005-07-14 08:17:32 51°12.805 2°49.892 8.4 3 16 102130 100
2005-07-14 08:17:37 51°12.796 2°49.869 8.9 357 16 102130 100
2005-07-14 08:17:42 51°12.787 2°49.843 8.4 356 16 102130 100
2005-07-14 08:17:47 51°12.777 2°49.817 8.5 354 16 102130 100
2005-07-14 08:17:52 51°12.768 2°49.792 8.8 355 16 102140 100
2005-07-14 08:17:56 51°12.759 2°49.769 9.2 350 16 102140 100
2005-07-14 08:18:02 51°12.748 2°49.738 9.1 349 16 102130 100
2005-07-14 08:18:07 51°12.739 2°49.715 9 352 16 102130 100
2005-07-14 08:18:12 51°12.731 2°49.691 9 352 16.1 102140 100
2005-07-14 08:18:16 51°12.722 2°49.666 8.4 351 16.1 102140 100
2005-07-14 08:18:22 51°12.712 2°49.64 8.6 350 16.1 102130 100
2005-07-14 08:18:28 51°12.701 2°49.609 8.4 350 16.1 102130 100
2005-07-14 08:18:31 51°12.694 2°49.592 8.1 354 16.1 102130 100
2005-07-14 08:18:38 51°12.682 2°49.558 7.6 353 16.1 102130 100
2005-07-14 08:18:42 51°12.673 2°49.532 8.2 354 16.1 102130 100
2005-07-14 08:18:47 51°12.664 2°49.509 8.3 357 16.1 102130 100
2005-07-14 08:18:52 51°12.654 2°49.481 8.6 357 16.1 102130 100
2005-07-14 08:18:56 51°12.646 2°49.461 8.6 357 16.1 102130 100
2005-07-14 08:19:02 51°12.634 2°49.43 8.4 359 16.1 102130 100
2005-07-14 08:19:07 51°12.626 2°49.407 7.7 359 16.1 102130 100
2005-07-14 08:19:12 51°12.615 2°49.379 8.5 356 16.1 102140 100
2005-07-14 08:19:18 51°12.606 2°49.353 8.2 356 16.1 102140 100
2005-07-14 08:19:22 51°12.597 2°49.33 8.7 358 16.1 102130 100
2005-07-14 08:19:27 51°12.588 2°49.304 8.3 353 16.1 102130 100
2005-07-14 08:19:31 51°12.58 2°49.284 9.6 353 16 102130 100
2005-07-14 08:19:37 51°12.568 2°49.252 9.3 353 16 102130 100
2005-07-14 08:19:42 51°12.558 2°49.224 9.3 349 16.1 102130 100
2005-07-14 08:19:48 51°12.548 2°49.198 8.7 350 16.1 102130 100
2005-07-14 08:19:52 51°12.539 2°49.173 8.8 349 16 102140 100
2005-07-14 08:19:56 51°12.531 2°49.152 8.7 352 16 102140 100
2005-07-14 08:20:02 51°12.52 2°49.121 8.2 353 16 102130 100
2005-07-14 08:20:08 51°12.51 2°49.095 8.5 347 16 102130 100
2005-07-14 08:20:12 51°12.501 2°49.069 7.8 347 16 102130 100
2005-07-14 08:20:16 51°12.493 2°49.049 8.2 348 16 102130 100
2005-07-14 08:20:22 51°12.482 2°49.018 8.7 352 16 102130 100
2005-07-14 08:20:28 51°12.472 2°48.992 7.9 354 16 102130 100
2005-07-14 08:20:31 51°12.465 2°48.974 7.9 352 16 102130 100
2005-07-14 08:20:37 51°12.454 2°48.944 7.1 352 16 102130 100
2005-07-14 08:20:42 51°12.445 2°48.918 7.7 352 16.1 102130 100
2005-07-14 08:20:48 51°12.434 2°48.889 7.6 350 16.1 102130 100
2005-07-14 08:20:52 51°12.426 2°48.866 7.6 353 16 102130 100
2005-07-14 08:20:57 51°12.416 2°48.84 7.6 352 16 102130 100
2005-07-14 08:21:02 51°12.406 2°48.812 7.4 356 16 102130 100
2005-07-14 08:21:08 51°12.396 2°48.786 7.3 354 16 102130 100
2005-07-14 08:21:12 51°12.388 2°48.764 6.9 353 16 102130 100
2005-07-14 08:21:17 51°12.378 2°48.738 7.4 348 16 102130 100
2005-07-14 08:21:22 51°12.369 2°48.712 7.6 349 16 102130 100
2005-07-14 08:21:27 51°12.359 2°48.687 7.9 356 16 102130 100
2005-07-14 08:21:32 51°12.35 2°48.663 7.9 359 16 102140 100
2005-07-14 08:21:38 51°12.339 2°48.632 8 355 16 102140 100
2005-07-14 08:21:42 51°12.33 2°48.607 8.2 356 16 102140 100
2005-07-14 08:21:48 51°12.32 2°48.581 9 358 16 102140 100
2005-07-14 08:21:52 51°12.312 2°48.56 9.7 357 16 102140 100
2005-07-14 08:21:57 51°12.302 2°48.532 8.7 358 16 102140 100
2005-07-14 08:22:02 51°12.291 2°48.504 9.6 352 16 102140 100
2005-07-14 08:22:08 51°12.282 2°48.478 9.5 352 16 102140 100
2005-07-14 08:22:12 51°12.273 2°48.455 9.2 351 16 102130 100
2005-07-14 08:22:17 51°12.264 2°48.429 9.2 354 16 102130 100
2005-07-14 08:22:22 51°12.254 2°48.401 9.3 355 16 102130 100
2005-07-14 08:22:28 51°12.244 2°48.375 9.1 356 16 102130 100
2005-07-14 08:22:32 51°12.236 2°48.351 4.4 355 16 102130 100
2005-07-14 08:22:37 51°12.226 2°48.326 8.7 355 16 102130 100
2005-07-14 08:22:42 51°12.216 2°48.297 9.6 357 16 102130 100
2005-07-14 08:22:48 51°12.206 2°48.271 9.4 354 16 102130 100
2005-07-14 08:22:52 51°12.198 2°48.248 9.5 356 16 102140 100
2005-07-14 08:22:57 51°12.188 2°48.222 9.2 354 16 102140 100
2005-07-14 08:23:02 51°12.178 2°48.197 9.6 351 16 102130 100
2005-07-14 08:23:08 51°12.168 2°48.168 9.4 350 16 102130 100
2005-07-14 08:23:12 51°12.158 2°48.143 8.9 352 16 102130 100
2005-07-14 08:23:18 51°12.149 2°48.117 8.4 353 16 102130 100
2005-07-14 08:23:22 51°12.14 2°48.094 8.8 353 16 102130 100
2005-07-14 08:23:28 51°12.129 2°48.065 8.6 353 16 102130 100
2005-07-14 08:23:32 51°12.12 2°48.039 8.2 353 16 102130 100
2005-07-14 08:23:36 51°12.112 2°48.019 8.2 349 16 102130 100
2005-07-14 08:23:42 51°12.1 2°47.988 7.8 348 16 102130 100
2005-07-14 08:23:47 51°12.092 2°47.964 7.5 348 16 102130 100
2005-07-14 08:23:52 51°12.081 2°47.936 7.5 345 16 102140 100
2005-07-14 08:23:56 51°12.073 2°47.915 7 348 16 102140 100
2005-07-14 08:24:02 51°12.062 2°47.884 7.3 351 16 102130 100
2005-07-14 08:24:08 51°12.052 2°47.858 7.6 354 16 102130 100
2005-07-14 08:24:11 51°12.045 2°47.84 8.5 353 16 102130 100
2005-07-14 08:24:16 51°12.035 2°47.811 9.5 353 16 102130 100
2005-07-14 08:24:22 51°12.023 2°47.78 9.7 352 16 102130 100
2005-07-14 08:24:27 51°12.015 2°47.756 10.1 351 16 102130 100
2005-07-14 08:24:32 51°12.005 2°47.73 9.7 349 16 102140 100
2005-07-14 08:24:37 51°11.996 2°47.704 9.9 351 16 102140 100
2005-07-14 08:24:42 51°11.985 2°47.676 9.5 351 16 102130 100
2005-07-14 08:24:48 51°11.975 2°47.649 9.5 351 16 102130 100
2005-07-14 08:24:52 51°11.967 2°47.625 9.2 353 16 102130 100
2005-07-14 08:24:57 51°11.958 2°47.602 8.8 354 16 102130 100
2005-07-14 08:25:02 51°11.947 2°47.573 8.6 354 16 102120 100
2005-07-14 08:25:08 51°11.937 2°47.544 8.5 352 16 102120 100
2005-07-14 08:25:12 51°11.929 2°47.524 8.2 354 16 102130 100
2005-07-14 08:25:17 51°11.92 2°47.498 8.5 349 16 102130 100
2005-07-14 08:25:22 51°11.909 2°47.469 8.2 347 16 102130 100
2005-07-14 08:25:27 51°11.9 2°47.443 7.8 353 16 102130 100
2005-07-14 08:25:32 51°11.892 2°47.416 7.6 351 16 102140 100
2005-07-14 08:25:37 51°11.884 2°47.391 7.8 351 16 102140 100
2005-07-14 08:25:43 51°11.874 2°47.359 7.7 353 16 102140 100
2005-07-14 08:25:47 51°11.867 2°47.334 7.3 355 16 102140 100
2005-07-14 08:25:52 51°11.86 2°47.31 7.5 352 16 102130 100
2005-07-14 08:25:56 51°11.853 2°47.285 7 356 16 102130 100
2005-07-14 08:26:02 51°11.843 2°47.252 7.5 354 16 102130 100
2005-07-14 08:26:07 51°11.835 2°47.225 7.5 355 16 102130 100
2005-07-14 08:26:11 51°11.829 2°47.203 6.8 354 16 102130 100
2005-07-14 08:26:18 51°11.818 2°47.167 6.9 355 16 102130 100
2005-07-14 08:26:22 51°11.811 2°47.143 6.8 353 16 102130 100
2005-07-14 08:26:28 51°11.802 2°47.112 6.9 353 16 102130 100
2005-07-14 08:26:32 51°11.795 2°47.088 7.3 353 16 102140 100
2005-07-14 08:26:37 51°11.787 2°47.063 8.4 354 16 102140 100
2005-07-14 08:26:42 51°11.778 2°47.033 8.6 352 15.9 102140 100
2005-07-14 08:26:47 51°11.77 2°47.006 8.4 353 15.9 102140 100
2005-07-14 08:26:52 51°11.763 2°46.981 8.3 352 16 102140 100
2005-07-14 08:26:57 51°11.754 2°46.954 7.9 353 16 102140 100
2005-07-14 08:27:02 51°11.745 2°46.924 8.5 352 15.9 102130 100
2005-07-14 08:27:07 51°11.737 2°46.896 8.1 353 15.9 102130 100
2005-07-14 08:27:12 51°11.73 2°46.872 8 352 16 102130 100
2005-07-14 08:27:17 51°11.721 2°46.845 7.4 354 16 102130 100
2005-07-14 08:27:22 51°11.712 2°46.815 7 354 16 102130 100
2005-07-14 08:27:27 51°11.704 2°46.787 7.4 350 16 102130 100
2005-07-14 08:27:33 51°11.695 2°46.757 7.5 351 15.9 102130 100
2005-07-14 08:27:37 51°11.689 2°46.732 7.6 348 15.9 102130 100
2005-07-14 08:27:42 51°11.681 2°46.704 8.6 343 15.9 102130 100
2005-07-14 08:27:48 51°11.673 2°46.673 8.2 345 15.9 102130 100
2005-07-14 08:27:52 51°11.667 2°46.648 8.3 346 15.9 102130 100
2005-07-14 08:27:57 51°11.66 2°46.623 8.2 345 15.9 102130 100
2005-07-14 08:28:02 51°11.652 2°46.592 8.4 344 16 102130 100
2005-07-14 08:28:07 51°11.645 2°46.564 7.5 345 16 102130 100
2005-07-14 08:28:12 51°11.637 2°46.536 7.2 344 16 102130 100
2005-07-14 08:28:17 51°11.631 2°46.511 7.5 341 16 102130 100
2005-07-14 08:28:22 51°11.623 2°46.48 7.7 345 16 102130 100
2005-07-14 08:28:27 51°11.615 2°46.452 7.2 346 16 102130 100
2005-07-14 08:28:32 51°11.608 2°46.424 8.5 344 16 102130 100
2005-07-14 08:28:37 51°11.601 2°46.396 7.7 345 16 102130 100
2005-07-14 08:28:42 51°11.594 2°46.368 7.7 346 16 102130 100
2005-07-14 08:28:47 51°11.587 2°46.34 7.6 346 16 102130 100
2005-07-14 08:28:53 51°11.579 2°46.309 7.5 351 16 102130 100
2005-07-14 08:28:57 51°11.572 2°46.284 7.7 347 16 102130 100
2005-07-14 08:29:02 51°11.565 2°46.256 7.7 351 16 102130 100
2005-07-14 08:29:07 51°11.558 2°46.228 7.6 344 16 102130 100
2005-07-14 08:29:12 51°11.551 2°46.203 8 348 16 102130 100
2005-07-14 08:29:16 51°11.544 2°46.178 7.6 350 16 102130 100
2005-07-14 08:29:23 51°11.535 2°46.141 7.6 356 16 102130 100
2005-07-14 08:29:27 51°11.528 2°46.116 7.2 352 16 102130 100
2005-07-14 08:29:32 51°11.521 2°46.091 7.4 358 16 102130 100
2005-07-14 08:29:37 51°11.514 2°46.063 7.5 357 16 102130 100
2005-07-14 08:29:43 51°11.505 2°46.029 7.7 357 16 102130 100
2005-07-14 08:29:47 51°11.499 2°46.004 7.4 350 16 102130 100
2005-07-14 08:29:52 51°11.491 2°45.976 7.2 356 16 102130 100
2005-07-14 08:29:57 51°11.485 2°45.95 7.3 355 16 102130 100
2005-07-14 08:30:03 51°11.476 2°45.916 7.3 353 16 102130 100
2005-07-14 08:30:08 51°11.469 2°45.888 7.9 344 16 102130 100
2005-07-14 08:30:13 51°11.462 2°45.86 7.9 349 16 102130 100
2005-07-14 08:30:17 51°11.455 2°45.835 8.1 348 16 102130 100
2005-07-14 08:30:22 51°11.447 2°45.807 7.5 349 16 102130 100
2005-07-14 08:30:28 51°11.439 2°45.776 8 348 16 102130 100
2005-07-14 08:30:33 51°11.432 2°45.748 7.8 350 16 102130 100
2005-07-14 08:30:37 51°11.425 2°45.723 8.3 352 16 102130 100
2005-07-14 08:30:43 51°11.417 2°45.691 7.9 349 16 102130 100
2005-07-14 08:30:47 51°11.412 2°45.669 8.3 350 16 102130 100
2005-07-14 08:30:52 51°11.404 2°45.638 7.6 352 16 102130 100
2005-07-14 08:30:57 51°11.397 2°45.61 7.8 348 16 102130 100
2005-07-14 08:31:02 51°11.389 2°45.582 7.3 349 16 102130 100
2005-07-14 08:31:07 51°11.382 2°45.553 7.4 354 16 102130 100
2005-07-14 08:31:11 51°11.376 2°45.531 7.7 351 16 102130 100
2005-07-14 08:31:18 51°11.367 2°45.494 8.1 351 16 102130 100
2005-07-14 08:31:23 51°11.359 2°45.466 7.7 352 16 102130 100
2005-07-14 08:31:27 51°11.353 2°45.441 7.8 354 16 102130 100
2005-07-14 08:31:32 51°11.346 2°45.415 7.6 355 16 102140 100
2005-07-14 08:31:37 51°11.339 2°45.387 7.7 358 16 102140 100
2005-07-14 08:31:42 51°11.331 2°45.356 7.4 356 16 102130 100
2005-07-14 08:31:47 51°11.324 2°45.328 7 355 16 102130 100
2005-07-14 08:31:52 51°11.317 2°45.302 7.3 353 16 102140 100
2005-07-14 08:31:57 51°11.31 2°45.274 6.9 358 16 102140 100
2005-07-14 08:32:03 51°11.301 2°45.24 7.1 354 16 102130 100
2005-07-14 08:32:08 51°11.294 2°45.211 8.2 351 16 102130 100
2005-07-14 08:32:12 51°11.288 2°45.186 7.3 352 16 102130 100
2005-07-14 08:32:17 51°11.281 2°45.16 7.2 349 16 102130 100
2005-07-14 08:32:22 51°11.273 2°45.129 7 351 15.9 102140 100
2005-07-14 08:32:28 51°11.265 2°45.098 7.4 354 15.9 102140 100
2005-07-14 08:32:32 51°11.26 2°45.075 8 357 15.9 102140 100
2005-07-14 08:32:37 51°11.252 2°45.047 8.1 353 15.9 102140 100
2005-07-14 08:32:42 51°11.244 2°45.015 8.3 352 16 102130 100
2005-07-14 08:32:47 51°11.237 2°44.987 8.4 357 16 102130 100
2005-07-14 08:32:51 51°11.231 2°44.964 8.4 353 16 102130 100
2005-07-14 08:32:57 51°11.223 2°44.933 7.7 356 16 102130 100
2005-07-14 08:33:02 51°11.215 2°44.902 7.1 353 16 102130 100
2005-07-14 08:33:07 51°11.207 2°44.874 7.7 358 16 102130 100
2005-07-14 08:33:12 51°11.2 2°44.846 7.4 358 16 102130 100
2005-07-14 08:33:17 51°11.193 2°44.817 7.2 354 16 102130 100
2005-07-14 08:33:23 51°11.185 2°44.786 8.2 349 16 102140 100
2005-07-14 08:33:27 51°11.178 2°44.76 7.3 351 16 102140 100
2005-07-14 08:33:32 51°11.171 2°44.731 8.5 359 16 102140 100
2005-07-14 08:33:37 51°11.164 2°44.703 9 353 16 102140 100
2005-07-14 08:33:43 51°11.156 2°44.671 8.9 353 16 102140 100
2005-07-14 08:33:47 51°11.151 2°44.649 8.5 353 16 102140 100
2005-07-14 08:33:52 51°11.142 2°44.617 8.1 350 16 102130 100
2005-07-14 08:33:57 51°11.136 2°44.592 8.3 349 16 102130 100
2005-07-14 08:34:03 51°11.127 2°44.558 8.3 349 16 102140 100
2005-07-14 08:34:07 51°11.12 2°44.532 7.9 348 16 102140 100
2005-07-14 08:34:12 51°11.113 2°44.504 7.5 347 16 102130 100
2005-07-14 08:34:17 51°11.106 2°44.478 7.7 347 16 102130 100
2005-07-14 08:34:23 51°11.097 2°44.444 7 348 16 102140 100
2005-07-14 08:34:28 51°11.09 2°44.416 7.1 347 16 102140 100
2005-07-14 08:34:33 51°11.082 2°44.388 7 349 16 102140 100
2005-07-14 08:34:37 51°11.076 2°44.365 7.3 357 16 102140 100
2005-07-14 08:34:42 51°11.069 2°44.334 7.4 358 16 102140 100
2005-07-14 08:34:47 51°11.061 2°44.305 7.8 359 16 102140 100
2005-07-14 08:34:53 51°11.053 2°44.274 8.2 1 16 102140 100
2005-07-14 08:34:57 51°11.048 2°44.251 8 1 16 102140 100
2005-07-14 08:35:02 51°11.04 2°44.22 7.8 2 16 102140 100
2005-07-14 08:35:07 51°11.032 2°44.192 8.2 358 16 102140 100
2005-07-14 08:35:13 51°11.024 2°44.16 8 -999 16.1 102140 100
2005-07-14 08:35:17 51°11.018 2°44.137 7.6 356 16.1 102140 100
2005-07-14 08:35:22 51°11.01 2°44.106 7.2 358 16.1 102140 100
2005-07-14 08:35:27 51°11.003 2°44.078 7.4 358 16.1 102140 100
2005-07-14 08:35:32 51°10.997 2°44.052 8.9 359 16.1 102140 100
2005-07-14 08:35:37 51°10.988 2°44.021 8.8 357 16.1 102140 100
2005-07-14 08:35:42 51°10.981 2°43.992 8.9 357 16 102140 100
2005-07-14 08:35:47 51°10.974 2°43.964 8.3 358 16 102140 100
2005-07-14 08:35:52 51°10.966 2°43.936 8 357 16.1 102140 100
2005-07-14 08:35:57 51°10.959 2°43.907 8.1 356 16.1 102140 100
2005-07-14 08:36:02 51°10.951 2°43.879 8.2 353 16.1 102130 100
2005-07-14 08:36:08 51°10.943 2°43.848 7.9 354 16.1 102130 100
2005-07-14 08:36:12 51°10.937 2°43.825 8 354 16.1 102140 100
2005-07-14 08:36:17 51°10.93 2°43.797 7.5 353 16.1 102140 100
2005-07-14 08:36:23 51°10.921 2°43.763 8.3 353 16.1 102140 100
2005-07-14 08:36:27 51°10.914 2°43.738 7.6 353 16.1 102140 100
2005-07-14 08:36:32 51°10.907 2°43.71 7.7 356 16 102140 100
2005-07-14 08:36:37 51°10.9 2°43.682 8.9 354 16 102140 100
2005-07-14 08:36:42 51°10.892 2°43.654 9 355 16.1 102140 100
2005-07-14 08:36:47 51°10.885 2°43.626 9 352 16.1 102140 100
2005-07-14 08:36:52 51°10.877 2°43.598 8.7 354 16.1 102140 100
2005-07-14 08:36:57 51°10.869 2°43.569 8.9 353 16.1 102140 100
2005-07-14 08:37:02 51°10.862 2°43.542 8.6 354 16.1 102140 100
2005-07-14 08:37:07 51°10.854 2°43.514 8.6 352 16.1 102140 100
2005-07-14 08:37:13 51°10.846 2°43.483 8.6 351 16.1 102130 100
2005-07-14 08:37:17 51°10.84 2°43.46 8.9 352 16.1 102130 100
2005-07-14 08:37:22 51°10.832 2°43.43 9.6 351 16.1 102140 100
2005-07-14 08:37:27 51°10.825 2°43.402 9 352 16.1 102140 100
2005-07-14 08:37:32 51°10.818 2°43.377 8.9 350 16 102140 100
2005-07-14 08:37:37 51°10.81 2°43.349 8.7 349 16 102140 100
2005-07-14 08:37:42 51°10.802 2°43.318 7.8 348 16.1 102140 100
2005-07-14 08:37:47 51°10.795 2°43.29 8.4 350 16.1 102140 100
2005-07-14 08:37:52 51°10.787 2°43.262 8.3 350 16 102130 100
2005-07-14 08:37:57 51°10.78 2°43.234 8 351 16 102130 100
2005-07-14 08:38:02 51°10.773 2°43.209 7.9 350 16 102140 100
2005-07-14 08:38:08 51°10.764 2°43.176 7.3 353 16 102140 100
2005-07-14 08:38:12 51°10.758 2°43.153 7.5 352 16 102140 100
2005-07-14 08:38:17 51°10.751 2°43.125 7.2 350 16 102140 100
2005-07-14 08:38:23 51°10.742 2°43.092 7.2 349 16 102140 100
2005-07-14 08:38:27 51°10.736 2°43.066 8.3 348 16 102140 100
2005-07-14 08:38:32 51°10.729 2°43.04 8.2 349 16 102140 100
2005-07-14 08:38:37 51°10.722 2°43.012 7.6 349 16 102140 100
2005-07-14 08:38:42 51°10.715 2°42.981 7.2 351 16 102140 100
2005-07-14 08:38:47 51°10.707 2°42.952 7.2 354 16 102140 100
2005-07-14 08:38:52 51°10.701 2°42.927 7.3 348 16 102150 100
2005-07-14 08:38:57 51°10.693 2°42.899 7.4 356 16 102150 100
2005-07-14 08:39:02 51°10.686 2°42.867 7.4 357 16 102140 100
2005-07-14 08:39:07 51°10.68 2°42.841 7.6 360 16 102140 100
2005-07-14 08:39:13 51°10.672 2°42.807 7.1 -999 16 102140 100
2005-07-14 08:39:17 51°10.666 2°42.781 7.9 359 16 102140 100
2005-07-14 08:39:22 51°10.66 2°42.752 7.6 359 16 102140 100
2005-07-14 08:39:28 51°10.652 2°42.72 8.4 359 16 102140 100
2005-07-14 08:39:33 51°10.645 2°42.691 8 356 16 102140 100
2005-07-14 08:39:38 51°10.638 2°42.662 7.6 -999 16 102140 100
2005-07-14 08:39:43 51°10.631 2°42.634 7.5 358 16 102140 100
2005-07-14 08:39:47 51°10.625 2°42.608 7.9 2 16 102140 100
2005-07-14 08:39:53 51°10.618 2°42.576 7.6 359 16 102140 100
2005-07-14 08:39:57 51°10.612 2°42.55 7.3 359 16 102140 100
2005-07-14 08:40:02 51°10.605 2°42.521 7.2 358 16 102140 100
2005-07-14 08:40:07 51°10.598 2°42.492 7.2 358 16 102140 100
2005-07-14 08:40:12 51°10.591 2°42.463 7.7 350 16 102150 100
2005-07-14 08:40:17 51°10.584 2°42.434 8.8 355 16 102150 100
2005-07-14 08:40:22 51°10.578 2°42.405 8.7 356 16 102140 100
2005-07-14 08:40:27 51°10.571 2°42.376 8.6 355 16 102140 100
2005-07-14 08:40:32 51°10.564 2°42.35 8.2 355 16 102150 100
2005-07-14 08:40:37 51°10.557 2°42.322 8.4 355 16 102150 100
2005-07-14 08:40:43 51°10.549 2°42.287 8.5 353 16 102140 100
2005-07-14 08:40:47 51°10.543 2°42.261 8.1 354 16 102140 100
2005-07-14 08:40:52 51°10.536 2°42.232 7.9 354 16 102140 100
2005-07-14 08:40:57 51°10.529 2°42.203 7.9 356 16 102140 100
2005-07-14 08:41:02 51°10.522 2°42.174 8 356 16 102140 100
2005-07-14 08:41:08 51°10.515 2°42.143 7.7 359 16 102140 100
2005-07-14 08:41:12 51°10.508 2°42.117 8.2 356 16 102140 100
2005-07-14 08:41:17 51°10.502 2°42.09 8.4 358 16 102140 100
2005-07-14 08:41:22 51°10.495 2°42.059 8.5 1 16 102150 100
2005-07-14 08:41:27 51°10.488 2°42.03 8.4 2 16 102150 100
2005-07-14 08:41:31 51°10.483 2°42.006 8.4 359 16 102150 100
2005-07-14 08:41:37 51°10.476 2°41.974 8.6 358 16 102150 100
2005-07-14 08:41:42 51°10.468 2°41.942 8.1 1 15.9 102140 100
2005-07-14 08:41:47 51°10.462 2°41.913 7.9 1 15.9 102140 100
2005-07-14 08:41:52 51°10.455 2°41.885 8.2 359 16 102140 100
2005-07-14 08:41:57 51°10.449 2°41.858 8 359 16 102140 100
2005-07-14 08:42:02 51°10.441 2°41.827 7.9 355 15.9 102150 100
2005-07-14 08:42:07 51°10.435 2°41.798 7.2 356 15.9 102150 100
2005-07-14 08:42:11 51°10.429 2°41.775 7.2 354 16 102140 100
2005-07-14 08:42:17 51°10.422 2°41.743 7.3 354 16 102140 100
2005-07-14 08:42:22 51°10.415 2°41.712 7.3 355 15.9 102140 100
2005-07-14 08:42:27 51°10.408 2°41.683 6.9 356 15.9 102140 100
2005-07-14 08:42:32 51°10.403 2°41.657 7.6 357 15.9 102150 100
2005-07-14 08:42:37 51°10.396 2°41.628 7.1 1 15.9 102150 100
2005-07-14 08:42:42 51°10.39 2°41.596 8.2 5 15.9 102140 100
2005-07-14 08:42:47 51°10.384 2°41.567 8.2 359 15.9 102140 100
2005-07-14 08:42:52 51°10.378 2°41.541 8.6 357 15.9 102140 100
2005-07-14 08:42:57 51°10.372 2°41.512 8.6 356 15.9 102140 100
2005-07-14 08:43:02 51°10.366 2°41.48 8.4 1 15.9 102150 100
2005-07-14 08:43:07 51°10.361 2°41.454 8.6 359 15.9 102150 100
2005-07-14 08:43:13 51°10.354 2°41.419 8.6 359 16 102150 100
2005-07-14 08:43:17 51°10.348 2°41.393 8.3 357 16 102150 100
2005-07-14 08:43:22 51°10.342 2°41.364 8.5 359 15.9 102140 100
2005-07-14 08:43:28 51°10.335 2°41.332 8.4 356 15.9 102140 100
2005-07-14 08:43:32 51°10.331 2°41.309 7.7 355 15.9 102150 100
2005-07-14 08:43:37 51°10.324 2°41.277 7.5 358 15.9 102150 100
2005-07-14 08:43:42 51°10.318 2°41.248 7.2 357 15.9 102140 100
2005-07-14 08:43:47 51°10.312 2°41.222 7.4 357 15.9 102140 100
2005-07-14 08:43:51 51°10.306 2°41.199 7.6 4 15.9 102140 100
2005-07-14 08:43:58 51°10.296 2°41.16 7.5 357 15.9 102140 100
2005-07-14 08:44:02 51°10.289 2°41.135 7.1 358 15.9 102150 100
2005-07-14 08:44:07 51°10.281 2°41.107 6.9 2 15.9 102150 100
2005-07-14 08:44:12 51°10.273 2°41.082 7.3 4 15.9 102150 100
2005-07-14 08:44:17 51°10.265 2°41.055 7.6 5 15.9 102150 100
2005-07-14 08:44:22 51°10.255 2°41.025 7.6 6 15.9 102150 100
2005-07-14 08:44:27 51°10.247 2°40.998 7.9 1 15.9 102150 100
2005-07-14 08:44:32 51°10.239 2°40.973 7.6 3 15.9 102150 100
2005-07-14 08:44:37 51°10.231 2°40.946 7.1 1 15.9 102150 100
2005-07-14 08:44:42 51°10.222 2°40.915 7.4 2 15.9 102150 100
2005-07-14 08:44:47 51°10.214 2°40.888 7.6 -999 15.9 102150 100
2005-07-14 08:44:52 51°10.206 2°40.863 7.7 2 15.9 102150 100
2005-07-14 08:44:57 51°10.198 2°40.835 7.5 2 15.9 102150 100
2005-07-14 08:45:03 51°10.188 2°40.802 8.5 358 15.9 102150 100
2005-07-14 08:45:07 51°10.181 2°40.777 8.4 354 15.9 102150 100
2005-07-14 08:45:12 51°10.173 2°40.752 8 354 15.9 102150 100
2005-07-14 08:45:17 51°10.164 2°40.721 7.9 357 15.9 102150 100
2005-07-14 08:45:23 51°10.155 2°40.691 7.4 355 15.9 102150 100
2005-07-14 08:45:27 51°10.148 2°40.666 7.8 356 15.9 102150 100
2005-07-14 08:45:32 51°10.14 2°40.638 7.6 357 15.9 102150 100
2005-07-14 08:45:37 51°10.132 2°40.61 7.7 360 15.9 102150 100
2005-07-14 08:45:43 51°10.123 2°40.58 8 1 15.9 102150 100
2005-07-14 08:45:47 51°10.115 2°40.555 8.8 3 15.9 102150 100
2005-07-14 08:45:53 51°10.106 2°40.524 8.1 1 15.9 102150 100
2005-07-14 08:45:57 51°10.099 2°40.499 8.1 2 15.9 102150 100
2005-07-14 08:46:02 51°10.091 2°40.474 8.3 3 15.9 102150 100
2005-07-14 08:46:08 51°10.081 2°40.441 8.1 1 15.9 102150 100
2005-07-14 08:46:12 51°10.074 2°40.416 7.6 359 15.9 102150 100
2005-07-14 08:46:17 51°10.067 2°40.391 8.2 357 15.9 102150 100
2005-07-14 08:46:23 51°10.057 2°40.357 8.2 355 15.9 102150 100
2005-07-14 08:46:27 51°10.05 2°40.332 7.6 353 15.9 102150 100
2005-07-14 08:46:33 51°10.041 2°40.301 7.4 355 15.8 102150 100
2005-07-14 08:46:38 51°10.034 2°40.272 7.6 354 15.8 102150 100
2005-07-14 08:46:42 51°10.026 2°40.248 8.1 357 15.8 102150 100
2005-07-14 08:46:47 51°10.018 2°40.22 7.6 356 15.8 102150 100
2005-07-14 08:46:52 51°10.01 2°40.191 7.6 354 15.9 102150 100
2005-07-14 08:46:57 51°10.003 2°40.166 7 355 15.9 102150 100
2005-07-14 08:47:03 51°9.993 2°40.132 6.9 356 15.9 102150 100
2005-07-14 08:47:07 51°9.986 2°40.107 7.7 353 15.9 102150 100
2005-07-14 08:47:12 51°9.978 2°40.079 7.4 354 15.8 102150 100
2005-07-14 08:47:17 51°9.971 2°40.054 7.7 359 15.8 102150 100
2005-07-14 08:47:22 51°9.962 2°40.023 7.7 354 15.8 102150 100
2005-07-14 08:47:28 51°9.953 2°39.992 8.5 353 15.8 102150 100
2005-07-14 08:47:31 51°9.947 2°39.973 8.2 353 15.8 102150 100
2005-07-14 08:47:38 51°9.937 2°39.936 8.8 356 15.8 102150 100
2005-07-14 08:47:42 51°9.929 2°39.911 8.8 355 15.8 102150 100
2005-07-14 08:47:48 51°9.92 2°39.88 8.4 354 15.8 102150 100
2005-07-14 08:47:52 51°9.913 2°39.855 7.3 355 15.9 102150 100
2005-07-14 08:47:57 51°9.906 2°39.829 7.4 350 15.9 102150 100
2005-07-14 08:48:02 51°9.897 2°39.798 7.7 352 15.9 102150 100
2005-07-14 08:48:07 51°9.889 2°39.77 8.4 351 15.9 102150 100
2005-07-14 08:48:12 51°9.882 2°39.741 6.8 355 15.9 102150 100
2005-07-14 08:48:17 51°9.873 2°39.713 7.8 8 15.9 102150 100
2005-07-14 08:48:22 51°9.866 2°39.685 7.3 9 15.9 102150 100
2005-07-14 08:48:27 51°9.858 2°39.657 7.4 7 15.9 102150 100
2005-07-14 08:48:33 51°9.849 2°39.626 7.4 7 15.9 102150 100
2005-07-14 08:48:38 51°9.841 2°39.597 7.4 2 15.9 102150 100
2005-07-14 08:48:43 51°9.833 2°39.569 7.7 8 15.9 102150 100
2005-07-14 08:48:47 51°9.825 2°39.544 7.5 4 15.9 102150 100
2005-07-14 08:48:51 51°9.819 2°39.521 7.4 6 15.9 102150 100
2005-07-14 08:48:57 51°9.81 2°39.49 7.7 7 15.9 102150 100
2005-07-14 08:49:02 51°9.801 2°39.459 7.5 3 15.9 102160 100
2005-07-14 08:49:07 51°9.793 2°39.431 7.4 5 15.9 102160 100
2005-07-14 08:49:12 51°9.786 2°39.402 7.6 359 15.9 102160 100
2005-07-14 08:49:17 51°9.778 2°39.377 7.7 1 15.9 102160 100
2005-07-14 08:49:23 51°9.769 2°39.343 7.7 355 15.9 102160 100
2005-07-14 08:49:27 51°9.762 2°39.318 8.4 1 15.9 102160 100
2005-07-14 08:49:32 51°9.754 2°39.289 8.2 3 15.9 102160 100
2005-07-14 08:49:37 51°9.746 2°39.264 8.1 359 15.9 102160 100
2005-07-14 08:49:43 51°9.737 2°39.23 7.6 355 15.9 102160 100
2005-07-14 08:49:47 51°9.73 2°39.205 8.9 355 15.9 102160 100
2005-07-14 08:49:52 51°9.721 2°39.177 8.3 353 15.9 102150 100
2005-07-14 08:49:57 51°9.713 2°39.148 8 353 15.9 102150 100
2005-07-14 08:50:03 51°9.705 2°39.117 7.9 355 15.9 102150 100
2005-07-14 08:50:07 51°9.698 2°39.091 7.7 359 15.9 102150 100
2005-07-14 08:50:12 51°9.69 2°39.063 7.6 356 15.9 102160 100
2005-07-14 08:50:17 51°9.683 2°39.037 8.6 358 15.9 102160 100
2005-07-14 08:50:23 51°9.675 2°39.002 8 359 15.9 102150 100
2005-07-14 08:50:27 51°9.67 2°38.978 8 358 15.9 102150 100
2005-07-14 08:50:33 51°9.664 2°38.943 7.7 358 15.9 102150 100
2005-07-14 08:50:37 51°9.659 2°38.919 7.5 352 15.9 102150 100
2005-07-14 08:50:42 51°9.654 2°38.886 8.7 357 15.9 102150 100
2005-07-14 08:50:48 51°9.647 2°38.853 8.3 356 15.9 102150 100
2005-07-14 08:50:53 51°9.642 2°38.823 8.3 -999 15.9 102160 100
2005-07-14 08:50:57 51°9.637 2°38.799 8.4 2 15.9 102160 100
2005-07-14 08:51:03 51°9.63 2°38.764 8.8 3 15.9 102160 100
2005-07-14 08:51:07 51°9.625 2°38.738 8.9 359 15.9 102160 100
2005-07-14 08:51:13 51°9.618 2°38.705 9.4 360 15.9 102150 100
2005-07-14 08:51:17 51°9.613 2°38.678 8.7 2 15.9 102150 100
2005-07-14 08:51:22 51°9.607 2°38.649 7.8 359 15.9 102150 100
2005-07-14 08:51:27 51°9.601 2°38.619 9.2 2 15.9 102150 100
2005-07-14 08:51:32 51°9.596 2°38.592 9.3 6 15.9 102150 100
2005-07-14 08:51:37 51°9.589 2°38.563 8.3 2 15.9 102150 100
2005-07-14 08:51:43 51°9.582 2°38.527 8.2 5 15.9 102150 100
2005-07-14 08:51:47 51°9.577 2°38.5 7.8 8 15.9 102150 100
2005-07-14 08:51:52 51°9.572 2°38.473 7.7 4 15.9 102160 100
2005-07-14 08:51:58 51°9.565 2°38.437 8.2 3 15.9 102160 100
2005-07-14 08:52:02 51°9.56 2°38.411 8.4 3 15.9 102150 100
2005-07-14 08:52:07 51°9.554 2°38.381 8.7 5 15.9 102150 100
2005-07-14 08:52:12 51°9.548 2°38.351 8.9 4 15.9 102150 100
2005-07-14 08:52:17 51°9.542 2°38.321 9.1 5 15.9 102150 100
2005-07-14 08:52:23 51°9.536 2°38.288 8.9 6 15.9 102150 100
2005-07-14 08:52:27 51°9.531 2°38.264 9 5 15.9 102150 100
2005-07-14 08:52:32 51°9.525 2°38.232 8.9 7 15.8 102150 100
2005-07-14 08:52:37 51°9.519 2°38.202 8.5 4 15.8 102150 100
2005-07-14 08:52:42 51°9.513 2°38.172 8.4 4 15.8 102150 100
2005-07-14 08:52:48 51°9.507 2°38.139 8.2 5 15.8 102150 100
2005-07-14 08:52:52 51°9.502 2°38.115 8.5 5 15.8 102150 100
2005-07-14 08:52:57 51°9.496 2°38.085 9 9 15.8 102150 100
2005-07-14 08:53:02 51°9.49 2°38.052 8.9 4 15.8 102150 100
2005-07-14 08:53:08 51°9.483 2°38.019 8.2 5 15.8 102150 100
2005-07-14 08:53:12 51°9.479 2°37.995 7.9 4 15.8 102150 100
2005-07-14 08:53:17 51°9.473 2°37.965 8.7 6 15.8 102150 100
2005-07-14 08:53:22 51°9.466 2°37.932 8.2 5 15.8 102160 100
2005-07-14 08:53:27 51°9.46 2°37.902 8.6 8 15.8 102160 100
2005-07-14 08:53:33 51°9.453 2°37.87 8.6 8 15.8 102150 100
2005-07-14 08:53:37 51°9.447 2°37.847 8.3 7 15.8 102150 100
2005-07-14 08:53:43 51°9.437 2°37.813 8.4 6 15.8 102160 100
2005-07-14 08:53:47 51°9.429 2°37.788 8.4 7 15.8 102160 100
2005-07-14 08:53:52 51°9.421 2°37.763 8.5 10 15.8 102150 100
2005-07-14 08:53:57 51°9.411 2°37.734 8.7 4 15.8 102150 100
2005-07-14 08:54:02 51°9.402 2°37.71 9.5 5 15.8 102150 100
2005-07-14 08:54:07 51°9.39 2°37.681 9.1 2 15.8 102150 100
2005-07-14 08:54:12 51°9.38 2°37.654 8.3 358 15.8 102160 100
2005-07-14 08:54:17 51°9.37 2°37.631 8.4 6 15.8 102160 100
2005-07-14 08:54:23 51°9.358 2°37.601 8.5 8 15.8 102150 100
2005-07-14 08:54:27 51°9.348 2°37.576 7.8 7 15.8 102150 100
2005-07-14 08:54:32 51°9.338 2°37.552 8.1 8 15.8 102150 100
2005-07-14 08:54:37 51°9.327 2°37.525 8.6 3 15.8 102150 100
2005-07-14 08:54:42 51°9.317 2°37.501 8.2 4 15.8 102150 100
2005-07-14 08:54:48 51°9.305 2°37.471 7.8 3 15.8 102150 100
2005-07-14 08:54:52 51°9.295 2°37.447 7.8 7 15.8 102150 100
2005-07-14 08:54:56 51°9.287 2°37.426 7.4 7 15.8 102150 100
2005-07-14 08:55:02 51°9.274 2°37.396 8.1 8 15.8 102150 100
2005-07-14 08:55:08 51°9.264 2°37.37 7.8 6 15.8 102150 100
2005-07-14 08:55:12 51°9.255 2°37.349 7.4 7 15.8 102160 100
2005-07-14 08:55:17 51°9.248 2°37.33 6.6 6 15.8 102160 100
2005-07-14 08:55:22 51°9.239 2°37.311 6.2 5 15.7 102160 100
2005-07-14 08:55:28 51°9.229 2°37.288 6 6 15.7 102160 100
2005-07-14 08:55:32 51°9.222 2°37.272 5.6 6 15.7 102150 100
2005-07-14 08:55:37 51°9.215 2°37.257 5.2 7 15.7 102150 100
2005-07-14 08:55:42 51°9.208 2°37.241 5.4 7 15.7 102150 100
2005-07-14 08:55:48 51°9.2 2°37.224 4.9 8 15.7 102150 100
2005-07-14 08:55:52 51°9.194 2°37.211 5.2 4 15.7 102160 100
2005-07-14 08:55:58 51°9.187 2°37.197 4.9 16 15.7 102160 100
2005-07-14 08:56:02 51°9.182 2°37.189 4.6 21 15.7 102160 100
2005-07-14 08:56:06 51°9.177 2°37.181 3.8 24 15.7 102160 100
2005-07-14 08:56:12 51°9.17 2°37.17 3.4 13 15.7 102160 100
2005-07-14 08:56:17 51°9.165 2°37.162 3.2 16 15.7 102160 100
2005-07-14 08:56:22 51°9.162 2°37.156 2.7 9 15.7 102160 100
2005-07-14 08:56:27 51°9.159 2°37.149 3 13 15.7 102160 100
2005-07-14 08:56:32 51°9.156 2°37.144 2.5 15 15.8 102160 100
2005-07-14 08:56:37 51°9.154 2°37.14 2.2 8 15.8 102160 100
2005-07-14 08:56:42 51°9.153 2°37.137 1.9 8 15.8 102160 100
2005-07-14 08:56:48 51°9.153 2°37.134 1.5 358 15.8 102160 100
2005-07-14 08:56:52 51°9.153 2°37.134 1.2 6 15.8 102160 100
2005-07-14 08:56:57 51°9.154 2°37.134 0.7 358 15.8 102160 100
2005-07-14 08:57:02 51°9.154 2°37.134 0.4 358 15.8 102160 100
2005-07-14 08:57:08 51°9.155 2°37.135 0.1 352 15.8 102160 100
2005-07-14 08:57:12 51°9.155 2°37.135 0.1 352 15.8 102160 100
2005-07-14 08:57:18 51°9.155 2°37.135 -999 346 15.8 102160 100
2005-07-14 08:57:22 51°9.155 2°37.135 -999 345 15.8 102160 100
2005-07-14 08:57:28 51°9.156 2°37.135 -999 345 15.8 102160 100
2005-07-14 08:57:33 51°9.156 2°37.135 -999 345 15.8 102160 100
2005-07-14 08:57:38 51°9.156 2°37.134 -999 345 15.8 102160 100
2005-07-14 08:57:42 51°9.156 2°37.134 -999 345 15.9 102160 100
2005-07-14 08:57:48 51°9.156 2°37.134 -999 345 15.9 102160 100
2005-07-14 08:57:53 51°9.156 2°37.133 -999 345 15.9 102160 100
2005-07-14 08:57:58 51°9.156 2°37.133 -999 345 15.9 102160 100
2005-07-14 08:58:02 51°9.156 2°37.133 -999 345 15.9 102160 100
2005-07-14 08:58:08 51°9.157 2°37.132 -999 347 15.9 102160 100
2005-07-14 08:58:12 51°9.157 2°37.132 -999 347 15.9 102160 100
2005-07-14 08:58:18 51°9.157 2°37.131 -999 347 15.9 102160 100
2005-07-14 08:58:22 51°9.157 2°37.131 -999 350 15.9 102160 100
2005-07-14 08:58:28 51°9.158 2°37.13 -999 349 15.9 102160 100
2005-07-14 08:58:32 51°9.158 2°37.13 -999 350 15.9 102160 100
2005-07-14 08:58:37 51°9.158 2°37.129 -999 353 15.9 102160 100
2005-07-14 08:58:42 51°9.158 2°37.129 -999 357 15.9 102160 100
2005-07-14 08:58:47 51°9.159 2°37.128 -999 358 15.9 102160 100
2005-07-14 08:58:52 51°9.159 2°37.127 -999 358 15.9 102160 100
2005-07-14 08:58:58 51°9.159 2°37.127 -999 358 15.9 102160 100
2005-07-14 08:59:02 51°9.159 2°37.126 -999 358 15.9 102160 100
2005-07-14 08:59:08 51°9.159 2°37.125 -999 359 15.9 102160 100
2005-07-14 08:59:13 51°9.16 2°37.124 -999 2 15.9 102160 100
2005-07-14 08:59:18 51°9.16 2°37.123 -999 2 15.9 102160 100
2005-07-14 08:59:22 51°9.159 2°37.123 -999 2 15.9 102160 100
2005-07-14 08:59:28 51°9.16 2°37.122 -999 2 15.9 102160 100
2005-07-14 08:59:32 51°9.16 2°37.121 -999 359 15.9 102160 100
2005-07-14 08:59:38 51°9.16 2°37.12 -999 353 15.9 102160 100
2005-07-14 08:59:42 51°9.16 2°37.119 -999 354 15.9 102160 100
2005-07-14 08:59:48 51°9.161 2°37.118 -999 2 15.9 102160 100
2005-07-14 08:59:52 51°9.161 2°37.118 -999 2 15.9 102160 100
2005-07-14 08:59:58 51°9.161 2°37.117 -999 2 15.9 102160 100
2005-07-14 09:00:02 51°9.162 2°37.116 -999 356 15.9 102160 100
2005-07-14 09:00:08 51°9.162 2°37.115 -999 356 15.9 102160 100
2005-07-14 09:00:13 51°9.162 2°37.114 -999 -999 15.9 102160 100
2005-07-14 09:00:18 51°9.162 2°37.113 -999 1 15.9 102160 100
2005-07-14 09:00:22 51°9.163 2°37.112 -999 1 15.9 102160 100
2005-07-14 09:00:28 51°9.163 2°37.111 -999 -999 15.9 102160 100
2005-07-14 09:00:32 51°9.163 2°37.11 -999 -999 16 102160 100
2005-07-14 09:00:38 51°9.163 2°37.109 -999 1 16 102160 100
2005-07-14 09:00:42 51°9.163 2°37.108 -999 358 16 102160 100
2005-07-14 09:00:48 51°9.163 2°37.106 -999 351 16 102160 100
2005-07-14 09:00:52 51°9.163 2°37.105 -999 351 16 102160 100
2005-07-14 09:00:58 51°9.163 2°37.104 -999 351 16 102160 100
2005-07-14 09:01:02 51°9.164 2°37.103 -999 351 16 102160 100
2005-07-14 09:01:08 51°9.164 2°37.101 -999 351 16 102160 100
2005-07-14 09:01:12 51°9.164 2°37.1 -999 351 16 102160 100
2005-07-14 09:01:17 51°9.165 2°37.099 -999 351 16 102160 100
2005-07-14 09:01:22 51°9.165 2°37.098 -999 355 16.1 102160 100
2005-07-14 09:01:28 51°9.165 2°37.097 -999 355 16.1 102160 100
2005-07-14 09:01:32 51°9.165 2°37.096 -999 356 16.1 102160 100
2005-07-14 09:01:38 51°9.166 2°37.094 -999 356 16.1 102160 100
2005-07-14 09:01:42 51°9.166 2°37.093 -999 -999 16.2 102160 100
2005-07-14 09:01:47 51°9.166 2°37.092 -999 5 16.2 102160 100
2005-07-14 09:01:52 51°9.166 2°37.09 -999 5 16.2 102160 100
2005-07-14 09:01:58 51°9.167 2°37.089 -999 6 16.2 102160 100
2005-07-14 09:02:01 51°9.167 2°37.088 -999 6 16.1 102160 100
2005-07-14 09:02:08 51°9.167 2°37.086 -999 7 16.1 102160 100
2005-07-14 09:02:12 51°9.167 2°37.085 -999 7 16.1 102160 100
2005-07-14 09:02:17 51°9.168 2°37.084 -999 8 16.1 102160 100
2005-07-14 09:02:21 51°9.168 2°37.083 -999 8 16.1 102160 100
2005-07-14 09:02:28 51°9.168 2°37.081 -999 7 16.1 102160 100
2005-07-14 09:02:32 51°9.168 2°37.08 -999 8 16.1 102160 100
2005-07-14 09:02:38 51°9.168 2°37.078 -999 8 16.1 102160 100
2005-07-14 09:02:42 51°9.169 2°37.077 -999 8 16.1 102160 100
2005-07-14 09:02:47 51°9.169 2°37.076 -999 8 16.1 102160 100
2005-07-14 09:02:52 51°9.169 2°37.074 -999 7 16.1 102160 100
2005-07-14 09:02:57 51°9.169 2°37.073 -999 7 16.1 102160 100
2005-07-14 09:03:02 51°9.17 2°37.071 -999 7 16.1 102160 100
2005-07-14 09:03:08 51°9.17 2°37.07 -999 341 16.1 102160 100
2005-07-14 09:03:12 51°9.17 2°37.069 -999 331 16.1 102160 100
2005-07-14 09:03:18 51°9.17 2°37.067 -999 329 16.1 102160 100
2005-07-14 09:03:22 51°9.17 2°37.066 -999 333 16.2 102160 100
2005-07-14 09:03:28 51°9.171 2°37.064 -999 341 16.2 102160 100
2005-07-14 09:03:32 51°9.171 2°37.063 -999 342 16.2 102160 100
2005-07-14 09:03:38 51°9.171 2°37.061 -999 342 16.2 102160 100
2005-07-14 09:03:41 51°9.171 2°37.06 -999 345 16.2 102160 100
2005-07-14 09:03:48 51°9.171 2°37.058 -999 345 16.2 102160 100
2005-07-14 09:03:53 51°9.171 2°37.057 -999 345 16.2 102160 100
2005-07-14 09:03:58 51°9.171 2°37.055 1.2 342 16.2 102160 100
2005-07-14 09:04:02 51°9.171 2°37.054 1.2 342 16.2 102160 100
2005-07-14 09:04:08 51°9.171 2°37.052 1.1 339 16.2 102160 100
2005-07-14 09:04:13 51°9.171 2°37.05 0.8 338 16.3 102160 100
2005-07-14 09:04:18 51°9.171 2°37.049 1.3 336 16.3 102160 100
2005-07-14 09:04:22 51°9.171 2°37.048 1.2 336 16.3 102160 100
2005-07-14 09:04:28 51°9.171 2°37.046 1.1 336 16.3 102160 100
2005-07-14 09:04:32 51°9.172 2°37.044 0.8 336 16.3 102160 100
2005-07-14 09:04:38 51°9.172 2°37.043 0.8 336 16.3 102160 100
2005-07-14 09:04:42 51°9.172 2°37.041 0.7 336 16.3 102160 100
2005-07-14 09:04:47 51°9.172 2°37.04 0.4 336 16.3 102160 100
2005-07-14 09:04:52 51°9.172 2°37.038 0.5 337 16.3 102160 100
2005-07-14 09:04:58 51°9.172 2°37.036 0.8 339 16.3 102160 100
2005-07-14 09:05:02 51°9.172 2°37.035 0.7 339 16.3 102160 100
2005-07-14 09:05:08 51°9.172 2°37.033 0.6 339 16.3 102160 100
2005-07-14 09:05:12 51°9.172 2°37.032 0.7 339 16.3 102160 100
2005-07-14 09:05:18 51°9.172 2°37.03 0.6 340 16.3 102160 100
2005-07-14 09:05:23 51°9.172 2°37.028 0.4 339 16.4 102160 100
2005-07-14 09:05:27 51°9.172 2°37.027 0.3 339 16.4 102160 100
2005-07-14 09:05:32 51°9.172 2°37.025 0.1 339 16.4 102160 100
2005-07-14 09:05:37 51°9.172 2°37.023 0.1 339 16.4 102160 100
2005-07-14 09:05:42 51°9.172 2°37.022 -999 339 16.4 102160 100
2005-07-14 09:05:48 51°9.172 2°37.02 0.1 339 16.4 102160 100
2005-07-14 09:05:52 51°9.172 2°37.018 0.2 340 16.4 102160 100
2005-07-14 09:05:57 51°9.172 2°37.016 0.1 342 16.4 102160 100
2005-07-14 09:06:02 51°9.172 2°37.015 0.1 342 16.4 102160 100
2005-07-14 09:06:07 51°9.172 2°37.013 -999 342 16.4 102160 100
2005-07-14 09:06:12 51°9.172 2°37.011 -999 342 16.5 102160 100
2005-07-14 09:06:18 51°9.172 2°37.009 -999 342 16.5 102160 100
2005-07-14 09:06:22 51°9.172 2°37.008 -999 355 16.5 102160 100
2005-07-14 09:06:28 51°9.172 2°37.006 -999 -999 16.5 102160 100
2005-07-14 09:06:32 51°9.172 2°37.004 -999 12 16.5 102160 100
2005-07-14 09:06:38 51°9.172 2°37.002 -999 34 16.5 102160 100
2005-07-14 09:06:42 51°9.172 2°37 -999 35 16.4 102160 100
2005-07-14 09:06:48 51°9.172 2°36.999 -999 34 16.4 102160 100
2005-07-14 09:06:52 51°9.172 2°36.997 -999 29 16.4 102160 100
2005-07-14 09:06:58 51°9.172 2°36.995 -999 20 16.4 102160 100
2005-07-14 09:07:02 51°9.172 2°36.993 -999 19 16.5 102160 100
2005-07-14 09:07:08 51°9.172 2°36.991 -999 16 16.5 102160 100
2005-07-14 09:07:13 51°9.172 2°36.99 -999 15 16.4 102160 100
2005-07-14 09:07:18 51°9.172 2°36.988 -999 15 16.4 102160 100
2005-07-14 09:07:23 51°9.172 2°36.986 1.4 20 16.4 102160 100
2005-07-14 09:07:27 51°9.172 2°36.984 1.4 17 16.4 102160 100
2005-07-14 09:07:32 51°9.173 2°36.983 1.3 17 16.4 102160 100
2005-07-14 09:07:38 51°9.173 2°36.981 1.4 16 16.4 102160 100
2005-07-14 09:07:42 51°9.173 2°36.979 1.3 16 16.4 102160 100
2005-07-14 09:07:46 51°9.173 2°36.978 1.2 11 16.4 102160 100
2005-07-14 09:07:52 51°9.173 2°36.975 1.4 358 16.4 102160 100
2005-07-14 09:07:58 51°9.173 2°36.973 1.2 357 16.4 102160 100
2005-07-14 09:08:01 51°9.173 2°36.972 1 357 16.5 102160 100
2005-07-14 09:08:08 51°9.173 2°36.97 1.2 358 16.5 102160 100
2005-07-14 09:08:12 51°9.173 2°36.968 1.2 1 16.5 102160 100
2005-07-14 09:08:18 51°9.172 2°36.966 1.5 3 16.5 102160 100
2005-07-14 09:08:22 51°9.172 2°36.964 1.8 18 16.5 102160 100
2005-07-14 09:08:28 51°9.172 2°36.962 1.4 18 16.5 102160 100
2005-07-14 09:08:33 51°9.172 2°36.96 1.3 18 16.6 102160 100
2005-07-14 09:08:37 51°9.172 2°36.959 1 18 16.6 102160 100
2005-07-14 09:08:41 51°9.172 2°36.957 1 19 16.6 102160 100
2005-07-14 09:08:48 51°9.172 2°36.955 1.1 19 16.6 102160 100
2005-07-14 09:08:52 51°9.172 2°36.953 1.2 23 16.6 102160 100
2005-07-14 09:08:58 51°9.172 2°36.951 1.4 24 16.6 102160 100
2005-07-14 09:09:02 51°9.172 2°36.949 1.3 26 16.6 102160 100
2005-07-14 09:09:08 51°9.172 2°36.947 1.1 25 16.6 102160 100
2005-07-14 09:09:12 51°9.172 2°36.945 1.1 24 16.6 102160 100
2005-07-14 09:09:18 51°9.172 2°36.943 1 24 16.6 102160 100
2005-07-14 09:09:22 51°9.172 2°36.942 1.2 25 16.6 102160 100
2005-07-14 09:09:27 51°9.172 2°36.939 1.3 25 16.6 102160 100
2005-07-14 09:09:32 51°9.172 2°36.938 1.2 25 16.5 102160 100
2005-07-14 09:09:37 51°9.171 2°36.936 1.2 25 16.5 102160 100
2005-07-14 09:09:42 51°9.171 2°36.934 1 25 16.5 102160 100
2005-07-14 09:09:48 51°9.171 2°36.932 1.2 26 16.5 102160 100
2005-07-14 09:09:52 51°9.171 2°36.93 1.4 27 16.5 102160 100
2005-07-14 09:09:58 51°9.171 2°36.928 1.5 27 16.5 102160 100
2005-07-14 09:10:01 51°9.171 2°36.926 1.6 27 16.5 102160 100
2005-07-14 09:10:08 51°9.171 2°36.924 1.3 27 16.5 102160 100
2005-07-14 09:10:12 51°9.171 2°36.922 1.4 27 16.5 102160 100
2005-07-14 09:10:18 51°9.171 2°36.92 1.2 27 16.5 102160 100
2005-07-14 09:10:21 51°9.171 2°36.919 1.2 27 16.4 102160 100
2005-07-14 09:10:28 51°9.17 2°36.916 1.1 27 16.4 102160 100
2005-07-14 09:10:32 51°9.17 2°36.915 1.1 27 16.4 102160 100
2005-07-14 09:10:38 51°9.17 2°36.912 1.2 27 16.4 102160 100
2005-07-14 09:10:42 51°9.17 2°36.911 1.1 27 16.4 102160 100
2005-07-14 09:10:48 51°9.17 2°36.909 1.1 27 16.4 102160 100
2005-07-14 09:10:52 51°9.17 2°36.907 1 27 16.4 102160 100
2005-07-14 09:10:58 51°9.169 2°36.905 1.1 27 16.4 102160 100
2005-07-14 09:11:02 51°9.169 2°36.903 1 27 16.4 102160 100
2005-07-14 09:11:08 51°9.169 2°36.901 0.8 27 16.4 102160 100
2005-07-14 09:11:13 51°9.169 2°36.899 0.8 27 16.4 102160 100
2005-07-14 09:11:18 51°9.169 2°36.897 0.9 27 16.4 102160 100
2005-07-14 09:11:21 51°9.169 2°36.896 1 27 16.4 102160 100
2005-07-14 09:11:28 51°9.169 2°36.893 1 28 16.4 102160 100
2005-07-14 09:11:32 51°9.169 2°36.891 1.1 33 16.4 102160 100
2005-07-14 09:11:38 51°9.168 2°36.889 0.9 34 16.4 102160 100